STARLINK-1172, 45074

Orbit data source: Space-Track

STARLINK-1172, 45074 is a payload satellite owned by SpaceX/Seattle (US) in LEO that was launched on Wed, 29 Jan 2020 UTC via an FALCON 9 launch vehicle from the Air Force Eastern Test Range (AFETR). Payload-class satellites include a variety of spacecraft equipped with specific instruments for various scientific and technological missions. These include communications satellites like Starlink; space stations such as the ISS; scientific satellites like the Hubble; Earth observation satellites from companies like Planet Labs, Umbra, and HawkEye 360; GPS; miniature CubeSats for education and research; and military/defense satellites.

Loading next visibility...
Identifier
45074, 2020-006AG
Orbit
LEO
Country
Flag of USUS
Related business
Manufacturer
SpaceX/Seattle
Mission
Operational Commercial Communications
Bus & Motor
STARLINK, Unknown motor
Mass
260 kg wet, ~248 kg dry
Launch date (UTC)
2020-01-29 (6 years ago)
Launch vehicle
FALCON 9
Launch site
Air Force Eastern Test Range (AFETR)
Object type
Payload
Rocket body
Debris
Shape & HBR
Box + 1 Pan, 10.1 m
Radar Cross Section
13.562 m², Large (>1 m²)

Expand to show TLE details & history
Last TLE update: 18 hours ago

TLE from 18 hours ago
0 STARLINK-1172
1 45074U 20006AG  26071.71206469  .00001762  00000-0  71603-4 0  9996
2 45074  53.1588 243.7822 0001218 101.0563 259.0575 15.30202130337337
Epoch: 2026-03-12T17:05Z
TLE epoch observation values (Epoch: 2026-03-12T17:05:22.389Z)
Latitude
0.00001°
Longitude
177.0809°
Altitude
476.267 km
Speed
7.629 km/s
True Right ascension
16h 15m 07s
True Declination
0° 00' 00"
Sunlit
Object was in daylight at epoch
Visualization orbit readout
Latitude
Unknown
Longitude
Unknown
Altitude
Unknown
Speed
Unknown
Apparent Right ascension
Unknown
Apparent Declination
Unknown
Sunlit
N/A
Visualization observer readout
Local Sidereal Time
15:41:41
Azimuth
Unknown
Elevation
Unknown
Doppler factor
Unknown
Orbital elements
Apogee altitude
476.3 km
Perigee altitude
474.631 km
Semi-major axis
6,853.602 km
Eccentricity
0.00012
Inclination
53.1588°
RAAN
243.7822°
Arg. of periapsis
101.0563°
True anomaly
259.0438°
Mean anomaly
259.0575°
Eccentric anomaly
259.05065°
Mean motion
3.82529 °/min
Orbital period
94.11 mins
BSTAR
0.000071603
Loading maneuver chart data...
Computing Atmospheric mass density...

Documentation

Showing up to 5 results
|